TimeCST,TemperatureF,Dew PointF,Humidity,Sea Level PressureIn,VisibilityMPH,Wind Direction,Wind SpeedMPH,Gust SpeedMPH,PrecipitationIn,Events,Conditions,WindDirDegrees,DateUTC
12:15 AM,37.9,12.9,36,30.06,10.0,WSW,17.3,32.2,N/A,,Clear,250,2013-01-30 06:15:00
12:35 AM,37.4,12.6,36,30.07,10.0,WSW,12.7,21.9,N/A,,Clear,250,2013-01-30 06:35:00
12:55 AM,37.2,12.0,36,30.07,10.0,West,17.3,28.8,N/A,,Clear,270,2013-01-30 06:55:00
1:15 AM,36.9,11.8,36,30.07,10.0,WSW,12.7,20.7,N/A,,Clear,250,2013-01-30 07:15:00
1:35 AM,36.5,11.3,35,30.07,10.0,WSW,16.1,21.9,N/A,,Clear,250,2013-01-30 07:35:00
1:55 AM,36.3,11.1,35,30.06,10.0,WSW,19.6,27.6,N/A,,Clear,240,2013-01-30 07:55:00
2:15 AM,35.8,11.3,36,30.07,10.0,WSW,19.6,27.6,N/A,,Clear,240,2013-01-30 08:15:00
2:35 AM,35.6,11.8,38,30.09,10.0,WSW,17.3,27.6,N/A,,Clear,240,2013-01-30 08:35:00
2:55 AM,35.8,12.0,38,30.09,10.0,SW,19.6,29.9,N/A,,Clear,230,2013-01-30 08:55:00
3:15 AM,35.4,12.6,39,30.10,10.0,WSW,23.0,28.8,N/A,,Clear,240,2013-01-30 09:15:00
3:35 AM,35.6,13.1,40,30.11,10.0,WSW,20.7,29.9,N/A,,Clear,240,2013-01-30 09:35:00
3:55 AM,35.1,13.1,40,30.11,10.0,WSW,17.3,26.5,N/A,,Clear,240,2013-01-30 09:55:00
4:15 AM,34.5,13.5,42,30.11,10.0,SW,27.6,32.2,N/A,,Clear,230,2013-01-30 10:15:00
4:35 AM,34.7,13.6,42,30.11,10.0,WSW,20.7,31.1,N/A,,Clear,240,2013-01-30 10:35:00
4:55 AM,34.7,14.0,43,30.11,10.0,WSW,19.6,29.9,N/A,,Clear,240,2013-01-30 10:55:00
5:15 AM,34.3,14.4,44,30.12,10.0,WSW,21.9,29.9,N/A,,Clear,240,2013-01-30 11:15:00
5:35 AM,34.5,14.7,44,30.14,10.0,WSW,18.4,27.6,N/A,,Clear,250,2013-01-30 11:35:00
5:55 AM,34.5,15.3,45,30.15,10.0,West,16.1,26.5,N/A,,Clear,260,2013-01-30 11:55:00
6:15 AM,34.2,15.6,47,30.15,10.0,SW,17.3,26.5,N/A,,Clear,230,2013-01-30 12:15:00
6:35 AM,33.3,15.8,49,30.16,10.0,WSW,12.7,-,N/A,,Clear,240,2013-01-30 12:35:00
7:15 AM,32.9,16.2,50,30.19,10.0,WSW,12.7,17.3,N/A,,Clear,240,2013-01-30 13:15:00
7:35 AM,32.2,16.3,52,30.20,10.0,SW,9.2,17.3,N/A,,Clear,230,2013-01-30 13:35:00
7:55 AM,31.5,16.3,54,30.20,10.0,WSW,9.2,-,N/A,,Clear,240,2013-01-30 13:55:00
8:15 AM,32.0,16.7,53,30.20,10.0,WSW,8.1,-,N/A,,Clear,240,2013-01-30 14:15:00
8:35 AM,32.9,17.1,52,30.22,10.0,SSW,8.1,-,N/A,,Clear,210,2013-01-30 14:35:00
8:55 AM,34.2,17.4,50,30.22,10.0,SW,11.5,-,N/A,,Clear,220,2013-01-30 14:55:00
9:15 AM,35.6,17.6,48,30.24,10.0,SW,13.8,-,N/A,,Clear,220,2013-01-30 15:15:00
9:35 AM,36.9,18.0,46,30.24,10.0,WSW,11.5,-,N/A,,Clear,240,2013-01-30 15:35:00
9:55 AM,37.8,17.6,44,30.24,10.0,West,16.1,20.7,N/A,,Clear,270,2013-01-30 15:55:00
10:15 AM,38.7,17.2,42,30.26,10.0,West,5.8,-,N/A,,Clear,260,2013-01-30 16:15:00
10:35 AM,39.6,17.8,41,30.25,10.0,WSW,8.1,-,N/A,,Clear,240,2013-01-30 16:35:00
10:55 AM,40.1,17.6,40,30.25,10.0,WSW,9.2,-,N/A,,Clear,250,2013-01-30 16:55:00
11:15 AM,41.2,15.1,35,30.25,10.0,WNW,12.7,20.7,N/A,,Clear,300,2013-01-30 17:15:00
11:35 AM,42.4,14.0,32,30.26,10.0,West,15.0,21.9,N/A,,Clear,270,2013-01-30 17:35:00
11:55 AM,43.3,13.3,30,30.25,10.0,West,12.7,17.3,N/A,,Clear,280,2013-01-30 17:55:00
12:15 PM,44.1,11.7,27,30.25,10.0,West,5.8,18.4,N/A,,Clear,280,2013-01-30 18:15:00
12:35 PM,44.6,10.9,26,30.24,10.0,NW,11.5,16.1,N/A,,Clear,310,2013-01-30 18:35:00
12:55 PM,45.5,11.1,25,30.24,10.0,SW,15.0,23.0,N/A,,Clear,230,2013-01-30 18:55:00
1:15 PM,46.2,8.8,22,30.23,10.0,SW,17.3,24.2,N/A,,Clear,220,2013-01-30 19:15:00
1:35 PM,46.9,7.2,20,30.22,10.0,WSW,18.4,25.3,N/A,,Clear,240,2013-01-30 19:35:00
1:55 PM,47.1,8.8,21,30.21,10.0,SW,18.4,29.9,N/A,,Clear,230,2013-01-30 19:55:00
2:15 PM,47.5,9.0,21,30.20,10.0,SW,21.9,29.9,N/A,,Clear,230,2013-01-30 20:15:00
2:35 PM,48.0,9.5,21,30.20,10.0,WSW,19.6,25.3,N/A,,Clear,240,2013-01-30 20:35:00
2:55 PM,47.7,12.2,24,30.19,10.0,WSW,19.6,28.8,N/A,,Clear,250,2013-01-30 20:55:00
3:15 PM,47.8,10.6,22,30.20,10.0,SW,23.0,27.6,N/A,,Clear,230,2013-01-30 21:15:00
3:35 PM,48.0,9.3,21,30.19,10.0,SW,21.9,25.3,N/A,,Clear,220,2013-01-30 21:35:00
3:55 PM,48.6,6.3,18,30.19,10.0,SW,21.9,28.8,N/A,,Clear,230,2013-01-30 21:55:00
4:15 PM,48.2,5.7,18,30.19,10.0,WSW,18.4,25.3,N/A,,Clear,250,2013-01-30 22:15:00
4:35 PM,48.0,6.8,19,30.18,10.0,WSW,20.7,29.9,N/A,,Clear,240,2013-01-30 22:35:00
4:55 PM,47.7,7.2,19,30.20,10.0,WSW,21.9,26.5,N/A,,Clear,240,2013-01-30 22:55:00
5:15 PM,47.5,8.1,20,30.19,10.0,WSW,16.1,25.3,N/A,,Clear,240,2013-01-30 23:15:00
5:35 PM,47.1,8.6,21,30.20,10.0,WSW,16.1,24.2,N/A,,Clear,240,2013-01-30 23:35:00
5:55 PM,46.4,9.5,22,30.20,10.0,SW,18.4,21.9,N/A,,Clear,230,2013-01-30 23:55:00
6:15 PM,45.3,10.8,25,30.19,10.0,WSW,9.2,21.9,N/A,,Clear,240,2013-01-31 00:15:00
6:35 PM,43.5,11.3,27,30.19,10.0,WSW,4.6,-,N/A,,Clear,240,2013-01-31 00:35:00
6:55 PM,41.2,11.3,30,30.20,10.0,SW,10.4,-,N/A,,Clear,230,2013-01-31 00:55:00
7:15 PM,40.1,10.8,30,30.22,10.0,WSW,8.1,-,N/A,,Clear,240,2013-01-31 01:15:00
7:35 PM,39.9,9.5,29,30.21,10.0,WSW,5.8,-,N/A,,Clear,240,2013-01-31 01:35:00
7:55 PM,39.6,8.1,27,30.22,10.0,WSW,10.4,-,N/A,,Clear,240,2013-01-31 01:55:00
8:15 PM,38.8,7.5,27,30.23,10.0,SW,5.8,-,N/A,,Clear,220,2013-01-31 02:15:00
8:35 PM,39.6,6.8,26,30.24,10.0,SSW,5.8,-,N/A,,Clear,210,2013-01-31 02:35:00
8:55 PM,39.7,6.3,25,30.23,10.0,SW,10.4,-,N/A,,Clear,220,2013-01-31 02:55:00
9:15 PM,39.4,6.1,25,30.24,10.0,SW,8.1,-,N/A,,Clear,220,2013-01-31 03:15:00
9:35 PM,38.7,6.6,27,30.24,10.0,SSW,8.1,-,N/A,,Clear,210,2013-01-31 03:35:00
10:15 PM,39.4,6.6,26,30.24,10.0,SW,9.2,-,N/A,,Clear,220,2013-01-31 04:15:00
10:35 PM,39.7,6.4,25,30.24,10.0,SW,11.5,-,N/A,,Clear,220,2013-01-31 04:35:00
10:55 PM,39.6,6.3,25,30.24,10.0,SW,12.7,-,N/A,,Clear,220,2013-01-31 04:55:00
11:15 PM,39.0,6.3,26,30.26,10.0,SW,8.1,-,N/A,,Clear,230,2013-01-31 05:15:00
11:35 PM,37.6,6.4,27,30.27,10.0,Calm,Calm,-,N/A,,Clear,0,2013-01-31 05:35:00
11:55 PM,36.7,6.6,29,30.27,10.0,Calm,Calm,-,N/A,,Clear,0,2013-01-31 05:55:00